Location: Castelnau
(43.6639°N, 0.8431°W)
Time: 03:26:19
(UTC+00:00)

Daily predictions for brighter satellites

Satellite Brightness Start Highest point End
(mag) Time Altitude Azimuth Time Altitude Azimuth Time Altitude Azimuth
ATLAS CENTAUR Rocket 4.4 04:38:31 24° SSW 04:40:36 27° S 04:55:46 10° ESE
IRS-1D 4.1 04:53:42 10° NNE 04:58:57 57° E 05:04:10 10° S
Meteor 1-13 Rocket 4.2 04:59:48 79° WNW 04:59:57 79° W 05:05:52 10° S
Cosmos 1515 Rocket 4.3 05:05:57 30° NNE 05:07:48 50° ENE 05:12:03 10° SSE
BREEZE-M DEB (TANK) 3.7 05:09:56 55° S 05:09:56 55° S 05:16:37 10° SE
ATLAS 2AS CENTAUR R/B 4.3 05:06:38 15° NNW 05:10:41 25° NNE 05:16:09 10° E
Meteor 1-11 Rocket 4.1 05:13:41 49° NNW 05:13:41 49° NNW 05:18:13 10° N
BlueWalker 3 4.4 05:15:08 13° S 05:15:08 13° S 05:15:36 10° SSE
ARIANE 6 FM1 Upper Stage 3.6 05:12:43 40° NE 05:12:53 40° NE 05:16:39 10° ESE
Lacrosse 5 rocket 3.7 05:21:15 12° NNE 05:21:15 12° NNE 05:21:45 10° NNE
CZ-4C R/B 4.5 05:20:28 11° N 05:22:00 11° N 05:24:06 10° NNE
Cosmos 1709 Rocket 3.9 05:17:03 10° SSW 05:23:00 55° WNW 05:29:01 10° N
BREEZE M DEB (TANK) 2.9 05:23:20 44° NNE 05:23:22 44° NNE 05:28:54 10° E
GEOS 3 Rocket 3.8 05:21:42 10° SE 05:26:53 72° NE 05:29:28 31° NNW
Okean 3 Rocket 3.6 05:23:30 10° S 05:27:51 77° E 05:32:15 10° N
Cosmos 1302 Rocket 3.9 05:26:45 49° NW 05:28:03 68° WSW 05:33:14 10° S
Cosmos 2082 Rocket 4.2 05:24:35 10° N 05:29:03 23° NE 05:33:31 10° ESE
BREEZE-M DEB (TANK) 3.3 05:28:26 56° NW 05:29:16 77° NNE 05:39:15 10° ESE
Cosmos 2278 Rocket 3.6 05:26:22 10° S 05:31:32 38° ESE 05:36:44 10° NE
SKYMED 2 3.5 05:30:34 10° S 05:34:50 60° W 05:35:12 58° WNW
Helios 1A Rocket 3.5 05:34:13 10° SE 05:37:24 43° ENE 05:39:35 18° N
Cosmos 909 Rocket 4.3 05:34:59 35° WNW 05:37:33 54° WSW 05:44:45 10° SSE
COSMO-SKYMED 1 2.3 05:34:15 10° SSE 05:38:21 89° WSW 05:40:33 27° NNW
Cosmos 1805 Rocket 4.3 05:34:27 10° S 05:38:45 55° E 05:43:05 10° NNE
NOAA 12 4.0 05:34:13 10° N 05:39:23 64° WNW 05:44:32 10° SSW
Okean 3 4.3 05:39:04 10° N 05:42:57 47° ENE 05:46:48 10° SSE
Cosmos 1833 Rocket 2.6 05:41:08 27° NW 05:44:17 70° WSW 05:49:51 10° SSE
RUBIN 8/PSLV 4.5 05:41:01 10° NNE 05:45:14 82° ESE 05:49:26 10° SSW
Cosmos 1500 Rocket 3.8 05:43:34 10° S 05:47:51 68° E 05:52:12 10° NNE
Cosmos 1408 Rocket 3.4 05:49:55 10° S 05:54:16 89° W 05:58:36 10° N
Sich 1 3.0 05:55:53 10° SSW 05:59:59 52° W 06:04:07 10° N
Cosmos 1992 Rocket 3.9 05:56:50 17° NNW 06:00:47 64° WSW 06:05:54 10° S
SeaSat 1 2.9 05:58:39 10° NNE 06:03:32 64° ESE 06:08:22 10° SSW
BREEZE-M DEB (TANK) 4.1 05:53:54 10° SW 06:03:50 70° SSE 06:09:00 10° ENE
Cosmos 1943 Rocket 2.2 05:59:05 10° SSW 06:04:34 80° ESE 06:10:05 10° NNE
CZ-4 R/B 4.3 06:04:20 10° N 06:08:45 38° WNW 06:13:12 10° SW
Cosmos 2181 Rocket 4.1 06:03:46 10° NNW 06:09:55 53° W 06:16:07 10° SSW
IGS 5A 3.2 06:07:52 10° N 06:11:50 70° WNW 06:15:46 10° SSW
BREEZE-M DEB (TANK) 3.8 06:12:52 22° NNW 06:13:25 24° N 06:15:27 10° ENE
Cosmos 921 Rocket 2.9 06:09:47 10° SSW 06:14:06 73° WNW 06:18:23 10° NNE
Cosmos 2184 Rocket 3.9 06:10:16 10° SSW 06:16:26 68° W 06:22:36 10° N
ATLAS CENTAUR R/B 2.6 06:16:36 10° N 06:19:09 23° NE 06:21:37 10° ESE
Meteor 2-10 Rocket 3.4 06:16:04 10° SSW 06:21:03 63° WNW 06:26:14 10° N
ARIANE 5 R/B 3.9 06:16:42 10° NNE 06:21:34 43° E 06:26:21 10° S
Cosmos 1140 Rocket 3.6 06:17:56 10° SSW 06:23:01 79° ESE 06:28:09 10° NNE
Cosmos 1484 Rocket 2.6 06:21:14 10° N 06:24:30 47° WNW 06:27:46 10° SSW
CORIOLIS 4.4 06:21:19 10° NNE 06:26:47 76° ESE 06:32:12 10° S
Cosmos 2084 4.3 06:25:50 17° W 06:28:10 28° NW 06:31:47 10° NNE
Cosmos 1862 Rocket 4.3 06:24:52 10° N 06:29:09 55° E 06:33:22 10° SSE
Okean 2 4.1 06:28:49 12° NW 06:31:41 27° W 06:34:57 10° SSW
Cosmos 1023 Rocket 4.4 06:27:46 10° SSW 06:32:49 79° WNW 06:37:57 10° NNE
CBERS-1 4.0 06:30:25 10° N 06:35:28 66° WNW 06:40:29 10° SSW
SL-23 DEB 3.7 06:36:08 13° W 06:38:48 45° NNW 06:42:02 10° NE
MOS 1 Rocket 3.1 06:38:07 10° NNE 06:42:44 87° WNW 06:47:05 10° SSW
Cosmos 2074 Rocket 4.4 06:38:30 10° SW 06:44:22 40° WNW 06:50:17 10° N
Cosmos 1707 Rocket 3.6 06:41:13 10° N 06:45:33 80° E 06:49:51 10° S
BREEZE-M DEB (TANK) 4.2 06:39:58 11° WNW 06:46:27 27° WSW 06:49:27 10° S
Cosmos 2228 Rocket 3.6 06:42:21 10° N 06:46:43 62° E 06:51:01 10° SSE
USA 234 3.3 06:40:37 10° NE 06:47:13 88° NW 06:53:47 10° SW
Cosmos 540 Rocket 4.3 06:44:19 10° N 06:49:16 50° ENE 06:54:13 10° SE
ARIANE 6 FM1 Upper Stage 4.0 06:48:46 11° WNW 06:51:41 22° WSW 06:54:49 10° S
Cosmos 1743 Rocket 4.1 06:48:04 10° SW 06:52:11 37° WNW 06:56:19 10° N
Thor Agena Rocket 3.5 06:48:20 10° N 06:53:25 72° WNW 06:58:32 10° SSW
Cosmos 407 Rocket 3.8 06:49:09 10° SSW 06:54:14 74° ESE 06:59:24 10° NNE
Cosmos 1633 Rocket 3.1 06:50:02 10° S 06:54:22 85° E 06:58:43 10° N
Lacrosse 5 rocket 3.4 06:56:33 10° NNW 06:57:34 11° N 06:58:33 10° NNE
Cosmos 1328 4.1 06:54:51 10° N 06:58:24 61° E 07:01:57 10° SSE
BREEZE-M DEB (TANK) 3.8 06:56:23 10° WNW 06:59:09 60° NNE 07:06:06 10° ESE
Nadezhda 3 Rocket 4.4 06:54:27 10° NNW 07:00:13 41° W 07:06:01 10° SSW
Cosmos 1666 Rocket 3.5 06:57:13 10° SSW 07:01:31 66° W 07:05:53 10° N
ATLAS 2AS CENTAUR R/B 2.8 06:55:41 10° NW 07:02:29 88° NE 07:09:15 10° SE
CZ-2D R/B 2.8 06:59:54 10° N 07:02:57 50° WNW 07:05:57 10° SSW
COSMOS 2406 3.8 06:58:38 10° NNW 07:04:20 60° ENE 07:09:59 10° SE
Cosmos 1953 2.7 07:00:54 10° S 07:04:28 62° E 07:08:06 10° NNE
SJ-12 3.7 07:01:24 10° N 07:05:11 61° WNW 07:08:56 10° SSW
